FW6313 Weather Reports


time (UTC)temp
C
wind
direction
speed
KPH
gust
KPH
rain 1hr
cm
rain 24hr
cm
rain mn
cm
humidity
%
barometer
mb
20260906221041 28 240 0.0 9.7 0.00 0.00 0.00 23 1002.0
20260906220541 28 292 0.0 9.7 0.00 0.00 0.00 24 1002.1
20260906220043 28 213 0.0 14.5 0.00 0.00 0.00 24 1002.1
20260906215540 28 298 1.6 14.5 0.00 0.00 0.00 25 1002.1
20260906215039 28 257 0.0 12.9 0.00 0.00 0.00 23 1002.2
20260906214539 29 11 3.2 11.3 0.00 0.00 0.00 21 1002.4
20260906214041 29 205 1.6 11.3 0.00 0.00 0.00 22 1002.3
20260906213537 29 215 0.0 8.0 0.00 0.00 0.00 24 1002.4
20260906213037 28 281 1.6 8.0 0.00 0.00 0.00 24 1002.5
20260906212536 28 230 0.0 3.2 0.00 0.00 0.00 24 1002.6
20260906212036 28 192 0.0 1.6 0.00 0.00 0.00 22 1002.6
20260906211534 29 192 0.0 9.7 0.00 0.00 0.00 22 1002.8
20260906211036 30 192 0.0 9.7 0.00 0.00 0.00 23 1002.9
20260906210535 30 221 0.0 6.4 0.00 0.00 0.00 22 1003.1
20260906210035 30 163 1.6 9.7 0.00 0.00 0.00 21 1003.0
20260906205532 29 189 1.6 9.7 0.00 0.00 0.00 24 1003.1
20260906205030 29 257 0.0 6.4 0.00 0.00 0.00 24 1003.1
20260906204530 29 237 0.0 6.4 0.00 0.00 0.00 23 1003.3
20260906204028 29 207 0.0 6.4 0.00 0.00 0.00 23 1003.3
20260906203528 29 338 0.0 6.4 0.00 0.00 0.00 22 1003.4
20260906203028 29 262 0.0 6.4 0.00 0.00 0.00 23 1003.4
20260906202527 29 176 0.0 3.2 0.00 0.00 0.00 24 1003.5
20260906202026 28 171 0.0 8.0 0.00 0.00 0.00 25 1003.6
20260906201525 28 171 0.0 8.0 0.00 0.00 0.00 26 1003.8
20260906201024 28 171 0.0 4.8 0.00 0.00 0.00 24 1003.9
20260906200525 28 167 0.0 4.8 0.00 0.00 0.00 25 1003.8
20260906200024 28 200 0.0 8.0 0.00 0.00 0.00 24 1003.9
20260906195523 28 167 0.0 8.0 0.00 0.00 0.00 23 1004.1
20260906195023 29 196 0.0 6.4 0.00 0.00 0.00 24 1004.0
20260906194522 28 171 0.0 8.0 0.00 0.00 0.00 23 1004.0
20260906194019 28 197 0.0 8.0 0.00 0.00 0.00 24 1004.1
20260906193519 28 180 0.0 6.4 0.00 0.00 0.00 24 1004.2
20260906193019 28 214 0.0 3.2 0.00 0.00 0.00 24 1004.2
20260906192518 28 211 0.0 3.2 0.00 0.00 0.00 23 1004.2
20260906192018 28 239 0.0 8.0 0.00 0.00 0.00 24 1004.2
20260906191517 28 281 0.0 8.0 0.00 0.00 0.00 24 1004.4
20260906191015 27 282 0.0 8.0 0.00 0.00 0.00 26 1004.5
20260906190515 27 270 0.0 6.4 0.00 0.00 0.00 24 1004.6
20260906190012 27 202 0.0 9.7 0.00 0.00 0.00 25 1004.7
20260906185511 26 325 0.0 11.3 0.00 0.00 0.00 24 1004.9
20260906185009 26 275 4.8 11.3 0.00 0.00 0.00 24 1005.0
20260906184520 26 19 0.0 11.3 0.00 0.00 0.00 24 1005.2
20260906184007 26 19 0.0 14.5 0.00 0.00 0.00 24 1005.2
20260906183509 26 21 4.8 14.5 0.00 0.00 0.00 23 1005.3
20260906183005 26 297 0.0 11.3 0.00 0.00 0.00 25 1005.4
20260906182503 25 275 0.0 11.3 0.00 0.00 0.00 26 1005.6
20260906182003 25 36 4.8 11.3 0.00 0.00 0.00 23 1005.6
20260906181502 25 273 3.2 14.5 0.00 0.00 0.00 24 1005.7
20260906181004 25 24 3.2 14.5 0.00 0.00 0.00 24 1005.8
20260906180600 25 26 4.8 14.5 0.00 0.00 0.00 25 1005.9
20260906180059 25 303 6.4 14.5 0.00 0.00 0.00 26 1006.1
20260906175558 25 306 3.2 12.9 0.00 0.00 0.00 26 1006.1
20260906175101 25 5 3.2 12.9 0.00 0.00 0.00 24 1006.3
20260906174600 24 346 0.0 11.3 0.00 0.00 0.00 25 1006.3
20260906174055 24 12 0.0 11.3 0.00 0.00 0.00 23 1006.3
20260906173552 23 36 0.0 11.3 0.00 0.00 0.00 25 1006.4
20260906173057 23 32 1.6 11.3 0.00 0.00 0.00 25 1006.5
20260906172550 23 302 1.6 9.7 0.00 0.00 0.00 29 1006.7
20260906172048 23 18 6.4 9.7 0.00 0.00 0.00 27 1006.7
20260906171549 22 49 0.0 8.0 0.00 0.00 0.00 31 1006.7
20260906171044 23 49 3.2 8.0 0.00 0.00 0.00 34 1006.7
20260906170549 23 49 0.0 6.4 0.00 0.00 0.00 35 1006.8
20260906170046 22 49 0.0 1.6 0.00 0.00 0.00 36 1006.9
20260906165542 22 49 0.0 1.6 0.00 0.00 0.00 38 1006.9
20260906165041 22 49 0.0 1.6 0.00 0.00 0.00 39 1007.0
20260906164541 22 49 0.0 0.0 0.00 0.00 0.00 43 1007.0
20260906164041 22 49 0.0 0.0 0.00 0.00 0.00 42 1007.1
20260906163538 22 49 0.0 0.0 0.00 0.00 0.00 46 1007.2
20260906163037 21 49 0.0 1.6 0.00 0.00 0.00 44 1007.2
20260906162535 21 49 0.0 1.6 0.00 0.00 0.00 45 1007.3
20260906162034 20 49 0.0 0.0 0.00 0.00 0.00 47 1007.3
20260906161535 20 49 0.0 0.0 0.00 0.00 0.00 47 1007.4
20260906161031 19 49 0.0 0.0 0.00 0.00 0.00 48 1007.4
20260906160529 18 49 0.0 0.0 0.00 0.00 0.00 51 1007.3
20260906160033 18 49 0.0 0.0 0.00 0.00 0.00 50 1007.3
20260906155530 17 49 0.0 0.0 0.00 0.00 0.00 51 1007.4
20260906155026 17 49 0.0 0.0 0.00 0.00 0.00 53 1007.3
20260906154526 17 49 0.0 0.0 0.00 0.00 0.00 51 1007.4
20260906154026 17 49 0.0 0.0 0.00 0.00 0.00 55 1007.5
20260906153525 16 49 0.0 1.6 0.00 0.00 0.00 52 1007.4
20260906153029 16 49 0.0 0.0 0.00 0.00 0.00 59 1007.4
20260906152523 15 49 0.0 0.0 0.00 0.00 0.00 57 1007.5
20260906152024 14 49 0.0 0.0 0.00 0.00 0.00 56 1007.5
20260906151522 14 49 0.0 0.0 0.00 0.00 0.00 57 1007.6
20260906151023 14 49 0.0 0.0 0.00 0.00 0.00 58 1007.6
20260906150520 14 49 0.0 0.0 0.00 0.00 0.00 58 1007.7
20260906150027 13 49 0.0 3.2 0.00 0.00 0.00 56 1007.7
20260906145525 13 49 0.0 4.8 0.00 0.00 0.00 57 1007.6
20260906145025 13 49 0.0 4.8 0.00 0.00 0.00 54 1007.6
20260906144518 13 49 0.0 0.0 0.00 0.00 0.00 53 1007.6
20260906144018 13 49 0.0 1.6 0.00 0.00 0.00 52 1007.5
20260906143518 13 49 0.0 0.0 0.00 0.00 0.00 52 1007.6
20260906143018 13 49 0.0 0.0 0.00 0.00 0.00 53 1007.6
20260906142515 13 49 0.0 0.0 0.00 0.00 0.00 55 1007.7
20260906142015 13 49 0.0 0.0 0.00 0.00 0.00 52 1007.7
20260906141513 13 49 0.0 0.0 0.00 0.00 0.00 52 1007.7
20260906141012 13 49 0.0 0.0 0.00 0.00 0.00 54 1007.7
20260906140512 12 49 0.0 0.0 0.00 0.00 0.00 53 1007.6
20260906140034 12 49 0.0 0.0 0.00 0.00 0.00 54 1007.7
20260906135511 12 49 0.0 0.0 0.00 0.00 0.00 54 1007.6
20260906135011 12 49 0.0 0.0 0.00 0.00 0.00 54 1007.6
20260906134510 12 49 0.0 0.0 0.00 0.00 0.00 54 1007.7
20260906134010 12 49 0.0 0.0 0.00 0.00 0.00 54 1007.5
20260906133508 12 49 0.0 0.0 0.00 0.00 0.00 54 1007.5
20260906133010 12 49 0.0 0.0 0.00 0.00 0.00 56 1007.5
20260906132509 12 49 0.0 0.0 0.00 0.00 0.00 55 1007.4
20260906132007 12 49 0.0 0.0 0.00 0.00 0.00 55 1007.3
20260906131506 12 49 0.0 0.0 0.00 0.00 0.00 54 1007.2
20260906131005 12 49 0.0 0.0 0.00 0.00 0.00 54 1007.1
20260906130504 12 49 0.0 0.0 0.00 0.00 0.00 53 1007.0
20260906130004 12 49 0.0 0.0 0.00 0.00 0.00 53 1007.1
20260906125501 12 49 0.0 0.0 0.00 0.00 0.00 52 1007.0
20260906125100 13 49 0.0 0.0 0.00 0.00 0.00 52 1006.9
20260906124559 13 49 0.0 0.0 0.00 0.00 0.00 52 1007.0
20260906124059 13 49 0.0 0.0 0.00 0.00 0.00 51 1006.8
20260906123558 13 49 0.0 0.0 0.00 0.00 0.00 51 1006.8
20260906123058 13 49 0.0 0.0 0.00 0.00 0.00 50 1006.9
20260906122601 13 49 0.0 0.0 0.00 0.00 0.00 51 1006.9
20260906122059 13 49 0.0 0.0 0.00 0.00 0.00 51 1007.0
20260906121558 13 49 0.0 0.0 0.00 0.00 0.00 51 1007.0
20260906121057 13 49 0.0 1.6 0.00 0.00 0.00 50 1007.0
20260906120558 13 49 0.0 0.0 0.00 0.00 0.00 50 1006.9
20260906120055 13 49 0.0 0.0 0.00 0.00 0.00 50 1006.8
20260906115555 13 49 0.0 0.0 0.00 0.00 0.00 51 1006.9
20260906115053 13 49 0.0 0.0 0.00 0.00 0.00 50 1006.9
20260906114553 13 49 0.0 0.0 0.00 0.00 0.00 49 1006.9
20260906114055 13 49 0.0 0.0 0.00 0.00 0.00 50 1006.8
20260906113552 13 49 0.0 0.0 0.00 0.00 0.00 49 1006.8
20260906113058 13 49 0.0 0.0 0.00 0.00 0.00 49 1006.7
20260906112551 13 49 0.0 0.0 0.00 0.00 0.00 48 1006.7
20260906112052 13 49 0.0 0.0 0.00 0.00 0.00 48 1006.7
20260906111555 13 49 0.0 0.0 0.00 0.00 0.00 50 1006.7
20260906111056 13 49 0.0 0.0 0.00 0.00 0.00 48 1006.7
20260906110551 13 49 0.0 0.0 0.00 0.00 0.00 48 1006.7
20260906110058 13 49 0.0 0.0 0.00 0.00 0.00 49 1006.9
20260906105550 13 49 0.0 0.0 0.00 0.00 0.00 48 1006.8
20260906105049 13 49 0.0 0.0 0.00 0.00 0.00 49 1006.7
20260906104549 13 49 0.0 0.0 0.00 0.00 0.00 49 1006.7
20260906104049 13 49 0.0 0.0 0.00 0.00 0.00 49 1006.8
20260906103549 13 49 0.0 0.0 0.00 0.00 0.00 48 1006.7
20260906103047 14 49 0.0 0.0 0.00 0.00 0.00 48 1006.7
20260906102547 14 49 0.0 0.0 0.00 0.00 0.00 47 1006.6
20260906102046 14 49 0.0 0.0 0.00 0.00 0.00 47 1006.6
20260906101546 14 49 0.0 0.0 0.00 0.00 0.00 47 1006.5
20260906101045 14 49 0.0 0.0 0.00 0.00 0.00 48 1006.5
20260906100545 14 49 0.0 0.0 0.00 0.00 0.00 47 1006.4
20260906100048 14 49 0.0 0.0 0.00 0.00 0.00 48 1006.4
20260906095544 14 49 0.0 0.0 0.00 0.00 0.00 47 1006.3
20260906095044 14 49 0.0 0.0 0.00 0.00 0.00 48 1006.1
20260906094556 14 49 0.0 0.0 0.00 0.00 0.00 48 1006.1
20260906094042 14 49 0.0 0.0 0.00 0.00 0.00 48 1006.0
20260906093542 14 49 0.0 0.0 0.00 0.00 0.00 48 1006.1
20260906093054 15 49 0.0 0.0 0.00 0.00 0.00 48 1006.1
20260906092540 15 49 0.0 0.0 0.00 0.00 0.00 47 1006.0
20260906092040 15 49 0.0 0.0 0.00 0.00 0.00 46 1006.0
20260906091539 15 49 0.0 0.0 0.00 0.00 0.00 46 1006.0
20260906091038 15 49 0.0 0.0 0.00 0.00 0.00 46 1006.1
20260906090539 15 49 0.0 0.0 0.00 0.00 0.00 46 1006.1
20260906090105 15 49 0.0 0.0 0.00 0.00 0.00 45 1006.0
20260906085540 15 49 0.0 0.0 0.00 0.00 0.00 45 1006.1
20260906085039 15 49 0.0 0.0 0.00 0.00 0.00 45 1006.1
20260906084536 15 49 0.0 0.0 0.00 0.00 0.00 45 1006.1
20260906084036 15 49 0.0 0.0 0.00 0.00 0.00 44 1005.9
20260906083534 15 49 0.0 0.0 0.00 0.00 0.00 43 1006.0
20260906083040 15 49 0.0 0.0 0.00 0.00 0.00 43 1006.0
20260906082533 16 49 0.0 0.0 0.00 0.00 0.00 43 1005.9
20260906082032 16 49 0.0 0.0 0.00 0.00 0.00 43 1006.0
20260906081533 16 49 0.0 0.0 0.00 0.00 0.00 43 1006.0
20260906081031 16 49 0.0 0.0 0.00 0.00 0.00 42 1006.0
20260906080531 16 49 0.0 0.0 0.00 0.00 0.00 43 1006.0
20260906080029 16 49 0.0 0.0 0.00 0.00 0.00 42 1006.0
20260906075532 16 49 0.0 0.0 0.00 0.00 0.00 42 1006.0
20260906075029 16 49 0.0 0.0 0.00 0.00 0.00 42 1005.9
20260906074536 16 49 0.0 0.0 0.00 0.00 0.00 42 1006.0
20260906074028 16 49 0.0 0.0 0.00 0.00 0.00 42 1006.0
20260906073528 16 49 0.0 0.0 0.00 0.00 0.00 42 1006.1
20260906073026 16 49 0.0 4.8 0.00 0.00 0.00 41 1006.1
20260906072526 16 49 0.0 6.4 0.00 0.00 0.00 41 1006.2
20260906072026 16 49 3.2 6.4 0.00 0.00 0.00 41 1006.2
20260906071524 17 49 0.0 0.0 0.00 0.00 0.00 41 1006.2
20260906071024 17 49 0.0 0.0 0.00 0.00 0.00 42 1006.1
20260906070525 17 49 0.0 0.0 0.00 0.00 0.00 41 1006.2
20260906070023 17 49 0.0 0.0 0.00 0.00 0.00 42 1006.2
20260906065527 17 49 0.0 0.0 0.00 0.00 0.00 41 1006.2
20260906065026 17 49 0.0 0.0 0.00 0.00 0.00 40 1006.1
20260906064522 17 49 0.0 0.0 0.00 0.00 0.00 41 1006.1
20260906064022 17 49 0.0 0.0 0.00 0.00 0.00 41 1006.1
20260906063525 17 49 0.0 0.0 0.00 0.00 0.00 40 1006.1
20260906063020 17 49 0.0 0.0 0.00 0.00 0.00 40 1006.1
20260906062519 17 49 0.0 0.0 0.00 0.00 0.00 40 1006.0
20260906062019 17 49 0.0 0.0 0.00 0.00 0.00 40 1006.0
20260906061520 17 49 0.0 0.0 0.00 0.00 0.00 39 1006.1
20260906061018 17 49 0.0 0.0 0.00 0.00 0.00 39 1006.1
20260906060518 17 49 0.0 0.0 0.00 0.00 0.00 39 1006.1
20260906060017 17 49 0.0 0.0 0.00 0.00 0.00 39 1006.0
20260906055517 17 49 0.0 0.0 0.00 0.00 0.00 39 1005.9
20260906055017 17 49 0.0 0.0 0.00 0.00 0.00 39 1006.0
20260906054517 18 49 0.0 0.0 0.00 0.00 0.00 38 1005.9
20260906054017 18 49 0.0 0.0 0.00 0.00 0.00 38 1006.0
20260906053516 18 49 0.0 0.0 0.00 0.00 0.00 37 1005.9
20260906053019 18 49 0.0 0.0 0.00 0.00 0.00 37 1005.9
20260906052517 18 49 0.0 0.0 0.00 0.00 0.00 37 1006.1
20260906052017 18 49 0.0 1.6 0.00 0.00 0.00 37 1006.0
20260906051519 18 49 0.0 0.0 0.00 0.00 0.00 36 1005.9
20260906051016 18 49 0.0 0.0 0.00 0.00 0.00 36 1006.0
20260906050515 18 49 0.0 0.0 0.00 0.00 0.00 36 1006.0
20260906050015 18 49 0.0 0.0 0.00 0.00 0.00 36 1006.0
20260906045514 19 49 0.0 0.0 0.00 0.00 0.00 35 1006.0
20260906045015 19 49 0.0 0.0 0.00 0.00 0.00 35 1006.0
20260906044515 19 49 0.0 0.0 0.00 0.00 0.00 35 1006.0
20260906044015 19 49 0.0 0.0 0.00 0.00 0.00 35 1006.0
20260906043514 19 49 0.0 0.0 0.00 0.00 0.00 35 1006.0
20260906043016 19 49 0.0 0.0 0.00 0.00 0.00 34 1006.0
20260906042513 19 49 0.0 0.0 0.00 0.00 0.00 34 1006.0
20260906042014 19 49 0.0 0.0 0.00 0.00 0.00 34 1006.0
20260906041527 20 49 0.0 0.0 0.00 0.00 0.00 34 1005.9
20260906041013 20 49 0.0 0.0 0.00 0.00 0.00 34 1005.9
20260906040513 20 49 0.0 0.0 0.00 0.00 0.00 33 1006.0
20260906040013 20 49 0.0 0.0 0.00 0.00 0.00 34 1005.9
20260906035513 20 49 0.0 0.0 0.00 0.00 0.00 34 1006.0
20260906035013 20 49 0.0 0.0 0.00 0.00 0.00 34 1005.9
20260906034515 20 49 0.0 0.0 0.00 0.00 0.00 33 1005.9
20260906034014 20 49 0.0 0.0 0.00 0.00 0.00 33 1005.8
20260906033512 20 49 0.0 0.0 0.00 0.00 0.00 34 1005.8
20260906033012 20 49 0.0 0.0 0.00 0.00 0.00 34 1005.8
20260906032512 20 49 0.0 0.0 0.00 0.00 0.00 33 1005.7
20260906032012 20 49 0.0 0.0 0.00 0.00 0.00 33 1005.7
20260906031512 20 49 0.0 0.0 0.00 0.00 0.00 32 1005.6
20260906031012 20 49 0.0 0.0 0.00 0.00 0.00 32 1005.5
20260906030511 20 49 0.0 0.0 0.00 0.00 0.00 32 1005.5
20260906030011 20 49 0.0 4.8 0.00 0.00 0.00 32 1005.4
20260906025512 20 49 0.0 8.0 0.00 0.00 0.00 32 1005.3
20260906025011 20 49 3.2 8.0 0.00 0.00 0.00 32 1005.2
20260906024511 20 49 0.0 8.0 0.00 0.00 0.00 32 1005.1
20260906024011 21 49 0.0 8.0 0.00 0.00 0.00 32 1005.0
20260906023510 21 49 1.6 8.0 0.00 0.00 0.00 32 1005.0
20260906023009 21 46 3.2 6.4 0.00 0.00 0.00 32 1005.0
20260906022509 21 46 4.8 6.4 0.00 0.00 0.00 32 1004.9
20260906022009 21 46 1.6 8.0 0.00 0.00 0.00 31 1004.9
20260906021510 21 46 0.0 8.0 0.00 0.00 0.00 31 1004.8
20260906021009 21 46 3.2 9.7 0.00 0.00 0.00 31 1004.7
20260906020509 22 38 4.8 9.7 0.00 0.00 0.00 31 1004.6
20260906020010 22 43 1.6 9.7 0.00 0.00 0.00 30 1004.6
20260906015510 22 346 0.0 0.0 0.00 0.00 0.00 30 1004.6
20260906015008 22 346 0.0 0.0 0.00 0.00 0.00 29 1004.5
20260906014525 22 346 0.0 0.0 0.00 0.00 0.00 29 1004.5
20260906014008 22 346 0.0 0.0 0.00 0.00 0.00 28 1004.5
20260906013507 22 346 0.0 0.0 0.00 0.00 0.00 28 1004.4
20260906013008 23 346 0.0 0.0 0.00 0.00 0.00 28 1004.4
20260906012507 23 346 0.0 0.0 0.00 0.00 0.00 28 1004.4
20260906012007 23 346 0.0 0.0 0.00 0.00 0.00 28 1004.5
20260906011507 23 346 0.0 0.0 0.00 0.00 0.00 28 1004.5
20260906011008 23 346 0.0 0.0 0.00 0.00 0.00 28 1004.5
20260906010506 23 346 0.0 4.8 0.00 0.00 0.00 28 1004.4
20260906010022 23 346 0.0 8.0 0.00 0.00 0.00 28 1004.5
20260906005505 23 346 3.2 8.0 0.00 0.00 0.00 28 1004.5
20260906005009 23 346 0.0 6.4 0.00 0.00 0.00 28 1004.5
20260906004506 23 346 0.0 0.0 0.00 0.00 0.00 29 1004.5
20260906004006 23 346 0.0 9.7 0.00 0.00 0.00 29 1004.4
20260906003504 23 329 6.4 9.7 0.00 0.00 0.00 29 1004.4
20260906003004 23 34 1.6 11.3 0.00 0.00 0.00 29 1004.3
20260906002503 23 38 6.4 11.3 0.00 0.00 0.00 30 1004.4
20260906002006 23 34 4.8 12.9 0.00 0.00 0.00 29 1004.3
20260906001504 23 26 6.4 19.3 0.00 0.00 0.00 29 1004.3
20260906001003 23 33 8.0 19.3 0.00 0.00 0.00 29 1004.2
20260906000503 23 44 6.4 14.5 0.00 0.00 0.00 29 1004.1
20260906000003 23 22 6.4 14.5 0.00 0.00 0.00 30 1004.0
20260905235503 23 10 4.8 16.1 0.00 0.00 0.00 29 1004.0
20260905235003 23 16 6.4 16.1 0.00 0.00 0.00 29 1003.9
20260905234502 23 17 6.4 11.3 0.00 0.00 0.00 29 1003.9
20260905234002 23 49 1.6 12.9 0.00 0.00 0.00 30 1003.8
20260905233501 23 32 1.6 12.9 0.00 0.00 0.00 32 1003.8
20260905233000 23 13 1.6 12.9 0.00 0.00 0.00 30 1003.8
20260905232501 23 43 6.4 11.3 0.00 0.00 0.00 29 1003.8
20260905232002 24 42 6.4 14.5 0.00 0.00 0.00 29 1003.8
20260905231601 24 34 8.0 14.5 0.00 0.00 0.00 28 1003.8
20260905231100 25 26 6.4 12.9 0.00 0.00 0.00 30 1003.9
20260905230604 25 331 4.8 12.9 0.00 0.00 0.00 29 1003.8
20260905230116 25 5 6.4 17.7 0.00 0.00 0.00 28 1003.8
20260905225559 25 38 6.4 17.7 0.00 0.00 0.00 28 1003.8
20260905225059 26 22 0.0 12.9 0.00 0.00 0.00 28 1003.7
20260905224600 26 298 1.6 8.0 0.00 0.00 0.00 30 1003.7
20260905224058 25 296 0.0 3.2 0.00 0.00 0.00 30 1003.7
20260905223558 25 288 0.0 4.8 0.00 0.00 0.00 28 1003.8
20260905223058 25 290 0.0 9.7 0.00 0.00 0.00 30 1003.8
20260905222558 25 286 0.0 9.7 0.00 0.00 0.00 29 1003.8
20260905222056 25 5 0.0 11.3 0.00 0.00 0.00 29 1003.9
20260905221557 26 360 4.8 11.3 0.00 0.00 0.00 28 1003.9